Regional Weather Roundup
Issued by NWS Sterling, VA

Home | Current Version | Previous Version | Graphics & Text | Print | Product List | Glossary Off
Versions: 1 2 3 4 5 6 7 8 9 10 11 12 13 14 15 16 17 18 19 20 21 22 23 24 25 26 27 28 29 30 31 32 33 34 35 36 37 38 39 40 41 42 43 44 45 46 47 48 49 50

000
ASUS41 KLWX 290910
RWRLWX

REGIONAL WEATHER ROUNDUP
NATIONAL WEATHER SERVICE BALTIMORE MD/WASHINGTON DC
500 AM EDT TUE JUL 29 2014

Note: "FAIR" indicates few or no clouds below 12,000 feet
with no significant weather and/or obstructions to visibility.
 TC=TEMPERATURE CELSIUS

 * =Non NWS site. Station does not report precipitation (e.g. rain,
    snow, etc.), thunder, or fog.

DCZ001-MDZ009-015-VAZ040>042-051-053>054-291000-
WASHINGTON METRO
  /KDAA//-FT BELVOIR

CITY           SKY/WX    TMP DP  RH WIND       PRES   REMARKS
WASHINGTON NAT CLEAR     67  54  63 NW13      29.88R
DULLES         PTCLDY    60  52  74 NW5       29.90R
ANDREWS AFB    CLEAR     65  56  73 NW10      29.87R
QUANTICO       CLEAR     64  53  67 VRB5      29.90R
COLLEGE PARK*  CLEAR     64  57  77 NW6       29.86R
LEESBURG*      CLEAR     61  55  82 NW7       29.90R
GAITHERSBURG*  CLEAR     61  54  77 NW9       29.92R

$$

MDZ006>007-011-014-291000-
BALTIMORE METRO

CITY           SKY/WX    TMP DP  RH WIND       PRES   REMARKS
BWI AIRPORT    CLEAR     61  57  87 NW6       29.86R
MD SCIENCE CTR   N/A     66  57  72 MISG      29.87R
MARTIN STATE   CLEAR     63  59  88 NW6       29.87R
ANNAPOLIS      CLEAR     66  58  75 W5        29.86R
FORT MEADE*    CLEAR     59  55  88 CALM      29.89R

$$

MDZ012-015-019>023-291000-
MARYLAND EASTERN SHORE

CITY           SKY/WX    TMP DP  RH WIND       PRES   REMARKS
OCEAN CITY     CLEAR     64  60  87 N6        29.83R
SALISBURY      NOT AVBL
BAY BRIDGE AP*   N/A     68  55  64 N8        29.86R
CAMBRIDGE*     MOCLDY    72  61  68 N8        29.84R
EASTON*        CLEAR     67  60  80 N5        29.88R

$$

MDZ017>025-291000-
SOUTHERN MARYLAND

CITY           SKY/WX    TMP DP  RH WIND       PRES   REMARKS
PATUXENT RIVER CLEAR     68  58  70 NW17      29.85R
ST INIGOES     CLEAR     66  57  72 NW5       29.86R
LEONARDTOWN*   CLEAR     61  55  82 W5        29.88R

$$

MDZ003>005-291000-
NORTH CENTRAL MARYLAND

CITY           SKY/WX    TMP DP  RH WIND       PRES   REMARKS
FREDERICK*     CLEAR     61  57  88 NW3       29.91R
HAGERSTOWN APT MOCLDY    59  49  69 W9        29.89R
WESTMINSTER*   PTCLDY    61  59  94 CALM      29.88R

$$

MDZ501>502-291000-
WESTERN MARYLAND

CITY           SKY/WX    TMP DP  RH WIND       PRES   REMARKS
OAKLAND*       FOG       46 N/A N/A NW7       29.95S VSB 3/4
CUMBERLAND*    CLOUDY    57  52  82 CALM      29.97R

$$

VAZ025>031-291000-
SHENANDOAH VALLEY

CITY           SKY/WX    TMP DP  RH WIND       PRES   REMARKS
WINCHESTER*    CLEAR     55  50  82 NW6       29.91S
STAUNTON*      CLEAR     53  50  89 CALM      29.95R

$$

WVZ021-048>050-054>055-291000-
EASTERN WEST VIRGINIA PANHANDLE

CITY           SKY/WX    TMP DP  RH WIND       PRES   REMARKS
MARTINSBURG    CLEAR     60  48  64 W8        29.91R
PETERSBURG*    PTCLDY    50  46  88 CALM      29.95R

$$

VAZ036>039-050-291000-
CENTRAL FOOTHILLS

CITY           SKY/WX    TMP DP  RH WIND       PRES   REMARKS
CHARLOTTESVILL CLEAR     61  50  67 NW6       29.91R
ORANGE*        CLEAR     54  52  94 W5        29.92R

$$

VAZ055>057-291000-
NORTH AND CENTRAL PIEDMONT

CITY           SKY/WX    TMP DP  RH WIND       PRES   REMARKS
FREDERICKSBRG* CLEAR     64  55  72 NW6       29.89R
STAFFORD*      CLEAR     58  58 100 NW5       29.93R

$$

NCZ024-NYZ072-PAZ021-071-VAZ022-071-291000-
OTHER REGIONAL OBSERVATIONS

CITY           SKY/WX    TMP DP  RH WIND       PRES   REMARKS
NEW YORK CITY  CLEAR     65  52  62 NW9       29.81R
PHILADELPHIA   CLEAR     66  55  67 NW10      29.84R
PITTSBURGH     PTCLDY    52  50  93 W8        29.95S
ROANOKE        CLEAR     60  53  77 CALM      29.95R
RICHMOND       PTCLDY    65  57  75 N3        29.89R
RALEIGH        MOCLDY    64  57  78 CALM      29.91R

$$

ANZ530>537-291000-
MARINE OBSERVATIONS

STATION/POSITION TIME  TEMP    WIND        PRES
                       AIR SEA DIR/SP/G
                 (UTC) (F)     (DEG/KT/KT) (MB)
THOMAS PT LIGHT  0900   66 78  320/ 12/ 14 1011.5R
BALT KEY BRIDGE  0900   71     280/ 10/ 11 1010.7R
COVE POINT       0900   69     340/  9/ 14 1010.5S
LEWISETTA        0900   70 78  340/ 10/ 15 1010.9R
SOLOMONS ISLAND  0900      80                N/A
PINEY POINT      0900          340/ 15/ 18   N/A

$$



USA.gov is the U.S. government's official web portal to all federal, state and local government web resources and services.